Regional Weather Roundup
Issued by NWS Goodland, KS

Home | Current Version | Previous Version | Text Only | Print | Product List | Glossary On
Versions: 1 2 3 4 5 6 7 8 9 10 11 12 13 14 15 16 17 18 19 20 21 22 23 24 25 26 27 28 29 30 31 32 33 34 35 36 37 38 39 40 41 42 43 44 45 46 47 48 49 50
000
ASUS43 KGLD 280908
RWRGLD

GOODLAND FORECAST AREA HOURLY WEATHER ROUNDUP
NATIONAL WEATHER SERVICE GOODLAND KS
300 AM MDT SUN MAY 28 2017

...OFFICIAL OBSERVATIONS...

CITY           SKY/WX    TMP DP  RH WIND       PRES   REMARKS
GOODLAND KS    CLEAR     47  44  90 W12       30.12F
HILL CITY KS   CLEAR     52  50  93 SW6       30.05S
IMPERIAL NEB   CLEAR     50  41  71 W13       30.09F
MCCOOK NEB     CLEAR     48  48 100 W8        30.06S
AKRON CO       CLEAR     43  39  86 W14       30.19F
BURLINGTON CO  CLEAR     46  43  89 W12       30.16F
LIMON CO       CLEAR     40  38  93 W9        30.24S
$$

...UNOFFICIAL OBSERVATIONS...

CITY           SKY/WX    TMP DP  RH WIND       PRES   REMARKS
LENORA KS        N/A     51  32  48 MISG        N/A
NORTON KS      CLEAR     54  46  76 W10       30.03S
SHARON SPRINGS   N/A     46  44  91 W8          N/A
TRENTON NEB      N/A     49  32  52 NW7         N/A
$$



USA.gov is the U.S. government's official web portal to all federal, state and local government web resources and services.